Showing default

JILIN-01 GAOFEN 3D 27, 52444

Orbit data source: Space-Track

JILIN-01 GAOFEN 3D 27, 52444 is a payload satellite owned by Changguang WJ (CN) in SSO that was launched on Thu, 05 May 2022 UTC via a CHANG ZHENG 2D launch vehicle from the Taiyaun Space Center, China (TSC). Payload-class satellites include a variety of spacecraft equipped with specific instruments for various scientific and technological missions. These include communications satellites like Starlink; space stations such as the ISS; scientific satellites like the Hubble; Earth observation satellites from companies like Planet Labs, Umbra, and HawkEye 360; GPS; miniature CubeSats for education and research; and military/defense satellites.

Loading next visibility...
Identifier
52444, 2022-048B
Orbit
SSO
Country
Flag of CNCN / PRC
Related business
Manufacturer
Changguang WJ
Mission
Operational Commercial Imaging
Bus & Motor
JL-1, Unknown motor
Mass
42 kg wet, 42 kg dry
Launch date (UTC)
2022-05-05 (4 years ago)
Launch vehicle
CHANG ZHENG 2D
Launch site
Taiyaun Space Center, China (TSC)
Object type
Payload
Rocket body
Debris
Shape & HBR
Box + 2 Pan, 0.8 m
Radar Cross Section
2.000 m², Medium (>0.1 m² and < 1m²)

Expand to show TLE details & history
Last TLE update: 10 hours ago

TLE from 10 hours ago
0 JILIN-01 GAOFEN 3D 27
1 52444U 22048B   25346.96213135  .00053784  00000-0  10078-2 0  9990
2 52444  97.5683  83.6514 0006473  11.1838 348.9554 15.48479679200446
Epoch: 2025-12-12T23:05Z
TLE epoch observation values (Epoch: 2025-12-12T23:05:28.148Z)
Latitude
-0.00011°
Longitude
15.3879°
Altitude
419.976 km
Speed
7.662 km/s
True Right ascension
05h 34m 36s
True Declination
0° 00' 00"
Sunlit
Object was in full shadow at epoch
Visualization orbit readout
Latitude
Unknown
Longitude
Unknown
Altitude
Unknown
Speed
Unknown
Apparent Right ascension
Unknown
Apparent Declination
Unknown
Sunlit
N/A
Visualization observer readout
Local Sidereal Time
07:30:35
Azimuth
Unknown
Elevation
Unknown
Doppler factor
Unknown
Orbital elements
Apogee altitude
422.507 km
Perigee altitude
413.709 km
Semi-major axis
6,796.245 km
Eccentricity
0.00065
Inclination
97.5683°
RAAN
83.6514°
Arg. of periapsis
11.1838°
True anomaly
348.94118°
Mean anomaly
348.9554°
Eccentric anomaly
348.94829°
Mean motion
3.87382 °/min
Orbital period
92.93 mins
BSTAR
0.0010078
Loading maneuver chart data...
Computing Atmospheric mass density...
Loading historical data...
Loading historical data...
Loading historical data...
Loading historical data...
Loading historical data...
Loading historical data...
Loading historical data...

Documentation

Showing up to 5 results
|